User: anonymous   Login
Location: Unspecified
(0.0000°N, 0.0000°E)
Time: 22:25:57
(UTC+00:00)
Language:

STARLINK-3387 - Orbit

View from above orbital plane
View from above orbital plane
View from above satellite
View from above satellite

Ground track
Ground track

The orbit is defined by the following mean orbital elements,

1 51125U          26145.45661058 +.00000000 +00000-0 -45851-5 0 00009
2 51125  53.2119 314.5085 0001198  92.2834 267.8295 15.08832479    06
Epoch (UTC): 25 May 2026 10:57:31
Eccentricity: 0.0001198
inclination: 53.2119°
perigee height: 539 km
apogee height: 541 km
right ascension of ascending node: 314.5085°
argument of perigee: 92.2834°
revolutions per day: 15.08832479
mean anomaly at epoch: 267.8295°

The dashed part of the orbit path shows where the satellite is in the earth's shadow,  

DLR